User: anonymous
Location: Pleiades Observatory
(40.1297°N, 91.5238°W)
Time: 21:19:42
(UTC-05:00)
Language:

Cosmos 1842 Rocket - Orbit

View from above orbital plane
View from above orbital plane
View from above satellite
View from above satellite

Ground track
Ground track

The orbit data is extracted from the following two-line orbital elements,

1 17912U 87038B   14245.10822211  .00000245  00000-0  27590-4 0  4408
2 17912 082.5006 286.2553 0019673 349.7362 010.3448 14.82412461476712
Epoch (UTC): 02 September 2014 02:35:50
Eccentricity: 0.0019673
inclination: 82.5006°
perigee height: 608 km
apogee height: 635 km
right ascension of ascending node: 286.2553°
argument of perigee: 349.7362°
revolutions per day: 14.82412461
mean anomaly at epoch: 10.3448°
orbit number at epoch: 47671

The dashed part of the orbit path shows where the satellite is in the earth's shadow,  

DLR